{"data":{"norad_id":64876,"intl_designator":"2025-155A","name":"IONOSFERA-M 3","alt_names":[],"object_type":"PAYLOAD","status":"ACTIVE","operator":null,"country":"CIS","launch_date":"2025-07-25","launch_site_code":"VOSTO","launch_vehicle":null,"mission":null,"orbit_class":"UNKNOWN","rcs_meters":null,"size_class":null,"mass_kg":null,"dimensions":null,"purposes":["earth_obs"],"wikipedia_slug":null,"has_3d_model":false,"image_url":null,"decayed_at":null,"tle_current":{"epoch":"2026-05-25T03:47:55.430880Z","epoch_age_seconds":61426,"freshness":"FRESH","line1":"1 64876U 25155A   26145.15828045  .00000052  00000+0  43448-4 0  9993","line2":"2 64876  98.6014 107.6451 0000443 353.1363   6.9808 14.21481935 43130","mean_motion":14.21481935,"eccentricity":4.43e-5,"inclination_deg":98.6014,"raan_deg":107.6451,"arg_perigee_deg":353.1363,"mean_anomaly_deg":6.9808,"bstar":4.3448e-5,"rev_number":4313,"period_min":101.30272953486,"perigee_km":820.02646798797,"apogee_km":820.66425352514,"semimajor_km":7198.4823607566,"source":"CELESTRAK","updated_at":"2026-05-25T13:38:12.838885Z"}}}